owner,sensor,date,latitude,longitude,vertical_datum,wind_speed,wind_to_direction,wind_speed_of_gust,qcFlag 
TCOON,ioos:station:TCOON:057:1,2015-06-01T00:00:00Z,28.4460,-96.3961,0.0,4.3,154.0,5.2,'11111222,11111222,11111222' 
TCOON,ioos:station:TCOON:057:1,2015-06-01T00:06:00Z,28.4460,-96.3961,0.0,4.1,164.0,4.9,'11111222,11111222,11111222' 
TCOON,ioos:station:TCOON:057:1,2015-06-01T00:12:00Z,28.4460,-96.3961,0.0,4.1,164.0,4.9,'1111122,1111122,1111122' 
TCOON,ioos:station:TCOON:057:1,2015-06-01T00:18:00Z,28.4460,-96.3961,0.0,4.0,166.0,4.7,'11111222,11111222,11111222' 
TCOON,ioos:station:TCOON:057:1,2015-06-01T00:24:00Z,28.4460,-96.3961,0.0,4.2,155.0,4.8,'11111222,11111222,11111222' 
TCOON,ioos:station:TCOON:057:1,2015-06-01T00:30:00Z,28.4460,-96.3961,0.0,4.0,162.0,5.2,'11111222,11111222,11111222' 
TCOON,ioos:station:TCOON:057:1,2015-06-01T00:36:00Z,28.4460,-96.3961,0.0,3.6,170.0,4.4,'11111222,11111222,11111222' 
TCOON,ioos:station:TCOON:057:1,2015-06-01T00:42:00Z,28.4460,-96.3961,0.0,3.4,168.0,4.3,'11111222,11111222,11111222' 
TCOON,ioos:station:TCOON:057:1,2015-06-01T00:48:00Z,28.4460,-96.3961,0.0,3.5,179.0,4.1,'11111222,11111222,11111222' 
TCOON,ioos:station:TCOON:057:1,2015-06-01T00:54:00Z,28.4460,-96.3961,0.0,3.2,193.0,4.5,'11111222,11111222,11111222' 
TCOON,ioos:station:TCOON:057:1,2015-06-01T01:00:00Z,28.4460,-96.3961,0.0,3.1,202.0,3.8,'11111222,11111222,11111222' 
TCOON,ioos:station:TCOON:057:1,2015-06-01T01:06:00Z,28.4460,-96.3961,0.0,2.7,207.0,4.1,'11111222,11111222,11111222' 
TCOON,ioos:station:TCOON:057:1,2015-06-01T01:12:00Z,28.4460,-96.3961,0.0,2.7,207.0,4.1,'1111122,1111122,1111122' 
TCOON,ioos:station:TCOON:057:1,2015-06-01T01:18:00Z,28.4460,-96.3961,0.0,3.1,200.0,3.5,'11111222,11111222,11111222' 
TCOON,ioos:station:TCOON:057:1,2015-06-01T01:24:00Z,28.4460,-96.3961,0.0,2.9,203.0,3.6,'11111222,11111222,11111222' 
TCOON,ioos:station:TCOON:057:1,2015-06-01T01:30:00Z,28.4460,-96.3961,0.0,2.9,201.0,3.4,'11111222,11111222,11111222' 
TCOON,ioos:station:TCOON:057:1,2015-06-01T01:36:00Z,28.4460,-96.3961,0.0,3.1,195.0,3.5,'11111222,11111222,11111222' 
TCOON,ioos:station:TCOON:057:1,2015-06-01T01:42:00Z,28.4460,-96.3961,0.0,2.5,205.0,3.7,'11111222,11111222,11111222' 
TCOON,ioos:station:TCOON:057:1,2015-06-01T01:48:00Z,28.4460,-96.3961,0.0,2.4,206.0,3.0,'11111222,11111222,11111222' 
TCOON,ioos:station:TCOON:057:1,2015-06-01T01:54:00Z,28.4460,-96.3961,0.0,2.4,205.0,2.8,'11111222,11111222,11111222' 
TCOON,ioos:station:TCOON:057:1,2015-06-01T02:00:00Z,28.4460,-96.3961,0.0,2.3,211.0,3.3,'11111222,11111222,11111222' 
TCOON,ioos:station:TCOON:057:1,2015-06-01T02:06:00Z,28.4460,-96.3961,0.0,2.3,211.0,2.7,'11111222,11111222,11111222' 
TCOON,ioos:station:TCOON:057:1,2015-06-01T02:12:00Z,28.4460,-96.3961,0.0,2.3,211.0,2.7,'1111122,1111122,1111122' 
TCOON,ioos:station:TCOON:057:1,2015-06-01T02:18:00Z,28.4460,-96.3961,0.0,2.5,196.0,3.1,'11111222,11111222,11111222' 
TCOON,ioos:station:TCOON:057:1,2015-06-01T02:24:00Z,28.4460,-96.3961,0.0,2.2,204.0,3.8,'11111222,11111222,11111222' 
TCOON,ioos:station:TCOON:057:1,2015-06-01T02:30:00Z,28.4460,-96.3961,0.0,2.3,200.0,2.9,'11111222,11111222,11111222' 
TCOON,ioos:station:TCOON:057:1,2015-06-01T02:36:00Z,28.4460,-96.3961,0.0,2.4,211.0,3.0,'11111222,11111222,11111222' 
TCOON,ioos:station:TCOON:057:1,2015-06-01T02:42:00Z,28.4460,-96.3961,0.0,1.8,218.0,2.3,'11111222,11111222,11111222' 
TCOON,ioos:station:TCOON:057:1,2015-06-01T02:48:00Z,28.4460,-96.3961,0.0,1.5,202.0,1.9,'11111222,11111222,11111222' 
TCOON,ioos:station:TCOON:057:1,2015-06-01T02:54:00Z,28.4460,-96.3961,0.0,1.3,241.0,1.7,'11111222,11111222,11111222' 
TCOON,ioos:station:TCOON:057:1,2015-06-01T03:00:00Z,28.4460,-96.3961,0.0,1.5,257.0,1.8,'11111222,11111222,11111222' 
TCOON,ioos:station:TCOON:057:1,2015-06-01T03:06:00Z,28.4460,-96.3961,0.0,1.7,262.0,2.3,'11111222,11111222,11111222' 
TCOON,ioos:station:TCOON:057:1,2015-06-01T03:12:00Z,28.4460,-96.3961,0.0,1.7,262.0,2.3,'1111122,1111122,1111122' 
TCOON,ioos:station:TCOON:057:1,2015-06-01T03:18:00Z,28.4460,-96.3961,0.0,2.0,267.0,2.6,'11111222,11111222,11111222' 
TCOON,ioos:station:TCOON:057:1,2015-06-01T03:24:00Z,28.4460,-96.3961,0.0,2.1,261.0,2.7,'11111222,11111222,11111222' 
TCOON,ioos:station:TCOON:057:1,2015-06-01T03:30:00Z,28.4460,-96.3961,0.0,2.0,260.0,2.4,'11111222,11111222,11111222' 
TCOON,ioos:station:TCOON:057:1,2015-06-01T03:36:00Z,28.4460,-96.3961,0.0,2.1,262.0,2.6,'11111222,11111222,11111222' 
TCOON,ioos:station:TCOON:057:1,2015-06-01T03:42:00Z,28.4460,-96.3961,0.0,2.0,261.0,2.5,'11111222,11111222,11111222' 
TCOON,ioos:station:TCOON:057:1,2015-06-01T03:48:00Z,28.4460,-96.3961,0.0,2.5,259.0,3.0,'11111222,11111222,11111222' 
TCOON,ioos:station:TCOON:057:1,2015-06-01T03:54:00Z,28.4460,-96.3961,0.0,2.4,255.0,2.9,'11111222,11111222,11111222' 
TCOON,ioos:station:TCOON:057:1,2015-06-01T04:00:00Z,28.4460,-96.3961,0.0,2.4,258.0,2.9,'11111222,11111222,11111222' 
TCOON,ioos:station:TCOON:057:1,2015-06-01T04:06:00Z,28.4460,-96.3961,0.0,2.2,251.0,2.9,'11111222,11111222,11111222' 
TCOON,ioos:station:TCOON:057:1,2015-06-01T04:12:00Z,28.4460,-96.3961,0.0,2.5,239.0,3.0,'11111222,11111222,11111222' 
TCOON,ioos:station:TCOON:057:1,2015-06-01T04:18:00Z,28.4460,-96.3961,0.0,2.5,239.0,3.0,'1111122,1111122,1111122' 
TCOON,ioos:station:TCOON:057:1,2015-06-01T04:24:00Z,28.4460,-96.3961,0.0,2.5,246.0,2.8,'11111222,11111222,11111222' 
TCOON,ioos:station:TCOON:057:1,2015-06-01T04:30:00Z,28.4460,-96.3961,0.0,2.2,250.0,2.8,'11111222,11111222,11111222' 
TCOON,ioos:station:TCOON:057:1,2015-06-01T04:36:00Z,28.4460,-96.3961,0.0,1.9,247.0,2.6,'11111222,11111222,11111222' 
TCOON,ioos:station:TCOON:057:1,2015-06-01T04:42:00Z,28.4460,-96.3961,0.0,2.0,259.0,2.4,'11111222,11111222,11111222' 
TCOON,ioos:station:TCOON:057:1,2015-06-01T04:48:00Z,28.4460,-96.3961,0.0,1.9,247.0,2.4,'11111222,11111222,11111222' 
TCOON,ioos:station:TCOON:057:1,2015-06-01T04:54:00Z,28.4460,-96.3961,0.0,2.2,245.0,2.6,'11111222,11111222,11111222' 
TCOON,ioos:station:TCOON:057:1,2015-06-01T05:00:00Z,28.4460,-96.3961,0.0,2.1,235.0,2.5,'11111222,11111222,11111222' 
TCOON,ioos:station:TCOON:057:1,2015-06-01T05:06:00Z,28.4460,-96.3961,0.0,2.4,235.0,2.8,'11111222,11111222,11111222' 
TCOON,ioos:station:TCOON:057:1,2015-06-01T05:12:00Z,28.4460,-96.3961,0.0,2.0,231.0,2.7,'11111222,11111222,11111222' 
TCOON,ioos:station:TCOON:057:1,2015-06-01T05:18:00Z,28.4460,-96.3961,0.0,2.0,231.0,2.7,'1111122,1111122,1111122' 
TCOON,ioos:station:TCOON:057:1,2015-06-01T05:24:00Z,28.4460,-96.3961,0.0,1.8,219.0,2.5,'11111222,11111222,11111222' 
TCOON,ioos:station:TCOON:057:1,2015-06-01T05:30:00Z,28.4460,-96.3961,0.0,1.9,212.0,2.2,'11111222,11111222,11111222' 
TCOON,ioos:station:TCOON:057:1,2015-06-01T05:36:00Z,28.4460,-96.3961,0.0,2.1,207.0,2.5,'11111222,11111222,11111222' 
TCOON,ioos:station:TCOON:057:1,2015-06-01T05:42:00Z,28.4460,-96.3961,0.0,1.8,208.0,2.4,'11111222,11111222,11111222' 
TCOON,ioos:station:TCOON:057:1,2015-06-01T05:48:00Z,28.4460,-96.3961,0.0,2.4,201.0,2.7,'11111222,11111222,11111222' 
TCOON,ioos:station:TCOON:057:1,2015-06-01T05:54:00Z,28.4460,-96.3961,0.0,1.9,215.0,2.4,'11111222,11111222,11111222' 
TCOON,ioos:station:TCOON:057:1,2015-06-01T06:00:00Z,28.4460,-96.3961,0.0,2.1,231.0,2.3,'11111222,11111222,11111222' 
TCOON,ioos:station:TCOON:057:1,2015-06-01T06:06:00Z,28.4460,-96.3961,0.0,1.6,233.0,2.0,'11111222,11111222,11111222' 
TCOON,ioos:station:TCOON:057:1,2015-06-01T06:12:00Z,28.4460,-96.3961,0.0,1.7,241.0,2.1,'11111222,11111222,11111222' 
TCOON,ioos:station:TCOON:057:1,2015-06-01T06:18:00Z,28.4460,-96.3961,0.0,1.6,244.0,1.9,'11111222,11111222,11111222' 
TCOON,ioos:station:TCOON:057:1,2015-06-01T06:24:00Z,28.4460,-96.3961,0.0,1.6,244.0,1.9,'1111122,1111122,1111122' 
TCOON,ioos:station:TCOON:057:1,2015-06-01T06:30:00Z,28.4460,-96.3961,0.0,2.4,252.0,2.8,'11111222,11111222,11111222' 
TCOON,ioos:station:TCOON:057:1,2015-06-01T06:36:00Z,28.4460,-96.3961,0.0,2.6,253.0,2.9,'11111222,11111222,11111222' 
TCOON,ioos:station:TCOON:057:1,2015-06-01T06:42:00Z,28.4460,-96.3961,0.0,2.2,256.0,2.9,'11111222,11111222,11111222' 
TCOON,ioos:station:TCOON:057:1,2015-06-01T06:48:00Z,28.4460,-96.3961,0.0,1.9,262.0,2.4,'11111222,11111222,11111222' 
TCOON,ioos:station:TCOON:057:1,2015-06-01T06:54:00Z,28.4460,-96.3961,0.0,2.0,266.0,2.4,'11111222,11111222,11111222' 
TCOON,ioos:station:TCOON:057:1,2015-06-01T07:00:00Z,28.4460,-96.3961,0.0,2.2,271.0,2.5,'11111222,11111222,11111222' 
TCOON,ioos:station:TCOON:057:1,2015-06-01T07:06:00Z,28.4460,-96.3961,0.0,2.3,269.0,2.7,'11111222,11111222,11111222' 
TCOON,ioos:station:TCOON:057:1,2015-06-01T07:18:00Z,28.4460,-96.3961,0.0,2.3,270.0,2.8,'11111222,11111222,11111222' 
TCOON,ioos:station:TCOON:057:1,2015-06-01T07:24:00Z,28.4460,-96.3961,0.0,2.4,265.0,2.9,'11111222,11111222,11111222' 
TCOON,ioos:station:TCOON:057:1,2015-06-01T07:30:00Z,28.4460,-96.3961,0.0,2.4,265.0,2.9,'1111122,1111122,1111122' 
TCOON,ioos:station:TCOON:057:1,2015-06-01T07:36:00Z,28.4460,-96.3961,0.0,2.7,276.0,3.4,'11111222,11111222,11111222' 
TCOON,ioos:station:TCOON:057:1,2015-06-01T07:42:00Z,28.4460,-96.3961,0.0,2.7,276.0,3.2,'11111222,11111222,11111222' 
TCOON,ioos:station:TCOON:057:1,2015-06-01T07:48:00Z,28.4460,-96.3961,0.0,2.3,274.0,3.1,'11111222,11111222,11111222' 
TCOON,ioos:station:TCOON:057:1,2015-06-01T07:54:00Z,28.4460,-96.3961,0.0,2.3,272.0,2.9,'11111222,11111222,11111222' 
TCOON,ioos:station:TCOON:057:1,2015-06-01T08:00:00Z,28.4460,-96.3961,0.0,2.5,276.0,2.9,'11111222,11111222,11111222' 
TCOON,ioos:station:TCOON:057:1,2015-06-01T08:12:00Z,28.4460,-96.3961,0.0,2.7,284.0,3.0,'1111122,1111122,1111122' 
TCOON,ioos:station:TCOON:057:1,2015-06-01T09:12:00Z,28.4460,-96.3961,0.0,2.7,291.0,3.1,'1111122,1111122,1111122' 
TCOON,ioos:station:TCOON:057:1,2015-06-01T09:48:00Z,28.4460,-96.3961,0.0,2.1,280.0,2.4,'11111222,11111222,11111222' 
TCOON,ioos:station:TCOON:057:1,2015-06-01T09:54:00Z,28.4460,-96.3961,0.0,2.1,290.0,2.7,'11111222,11111222,11111222' 
TCOON,ioos:station:TCOON:057:1,2015-06-01T10:00:00Z,28.4460,-96.3961,0.0,2.6,297.0,3.1,'11111222,11111222,11111222' 
TCOON,ioos:station:TCOON:057:1,2015-06-01T10:06:00Z,28.4460,-96.3961,0.0,2.8,298.0,3.3,'11111222,11111222,11111222' 
TCOON,ioos:station:TCOON:057:1,2015-06-01T10:12:00Z,28.4460,-96.3961,0.0,2.8,298.0,3.3,'1111122,1111122,1111122' 
TCOON,ioos:station:TCOON:057:1,2015-06-01T10:18:00Z,28.4460,-96.3961,0.0,2.9,312.0,3.2,'11111222,11111222,11111222' 
TCOON,ioos:station:TCOON:057:1,2015-06-01T10:24:00Z,28.4460,-96.3961,0.0,2.8,313.0,3.4,'11111222,11111222,11111222' 
TCOON,ioos:station:TCOON:057:1,2015-06-01T10:30:00Z,28.4460,-96.3961,0.0,3.2,303.0,3.8,'11111222,11111222,11111222' 
TCOON,ioos:station:TCOON:057:1,2015-06-01T10:36:00Z,28.4460,-96.3961,0.0,3.1,297.0,4.2,'11111222,11111222,11111222' 
TCOON,ioos:station:TCOON:057:1,2015-06-01T10:42:00Z,28.4460,-96.3961,0.0,2.6,289.0,3.3,'11111222,11111222,11111222' 
TCOON,ioos:station:TCOON:057:1,2015-06-01T10:48:00Z,28.4460,-96.3961,0.0,2.4,289.0,3.1,'11111222,11111222,11111222' 
TCOON,ioos:station:TCOON:057:1,2015-06-01T10:54:00Z,28.4460,-96.3961,0.0,2.4,287.0,2.9,'11111222,11111222,11111222' 
TCOON,ioos:station:TCOON:057:1,2015-06-01T11:00:00Z,28.4460,-96.3961,0.0,2.6,298.0,2.9,'11111222,11111222,11111222' 
TCOON,ioos:station:TCOON:057:1,2015-06-01T11:06:00Z,28.4460,-96.3961,0.0,2.6,299.0,3.2,'11111222,11111222,11111222' 
TCOON,ioos:station:TCOON:057:1,2015-06-01T11:12:00Z,28.4460,-96.3961,0.0,2.6,299.0,3.2,'1111122,1111122,1111122' 
TCOON,ioos:station:TCOON:057:1,2015-06-01T11:18:00Z,28.4460,-96.3961,0.0,2.8,288.0,3.1,'11111222,11111222,11111222' 
TCOON,ioos:station:TCOON:057:1,2015-06-01T11:24:00Z,28.4460,-96.3961,0.0,2.6,283.0,3.3,'11111222,11111222,11111222' 
TCOON,ioos:station:TCOON:057:1,2015-06-01T11:30:00Z,28.4460,-96.3961,0.0,3.1,291.0,4.1,'11111222,11111222,11111222' 
TCOON,ioos:station:TCOON:057:1,2015-06-01T11:36:00Z,28.4460,-96.3961,0.0,3.3,297.0,3.9,'11111222,11111222,11111222' 
TCOON,ioos:station:TCOON:057:1,2015-06-01T11:42:00Z,28.4460,-96.3961,0.0,3.9,320.0,4.6,'11111222,11111222,11111222' 
TCOON,ioos:station:TCOON:057:1,2015-06-01T11:48:00Z,28.4460,-96.3961,0.0,3.8,322.0,4.4,'11111222,11111222,11111222' 
TCOON,ioos:station:TCOON:057:1,2015-06-01T11:54:00Z,28.4460,-96.3961,0.0,3.3,324.0,4.6,'11111222,11111222,11111222' 
TCOON,ioos:station:TCOON:057:1,2015-06-01T12:00:00Z,28.4460,-96.3961,0.0,3.6,314.0,4.1,'11111222,11111222,11111222' 
TCOON,ioos:station:TCOON:057:1,2015-06-01T12:06:00Z,28.4460,-96.3961,0.0,3.8,324.0,4.4,'11111222,11111222,11111222' 
TCOON,ioos:station:TCOON:057:1,2015-06-01T12:12:00Z,28.4460,-96.3961,0.0,3.8,324.0,4.4,'1111122,1111122,1111122' 
TCOON,ioos:station:TCOON:057:1,2015-06-01T12:18:00Z,28.4460,-96.3961,0.0,4.1,318.0,4.7,'11111222,11111222,11111222' 
TCOON,ioos:station:TCOON:057:1,2015-06-01T12:24:00Z,28.4460,-96.3961,0.0,3.6,330.0,4.5,'11111222,11111222,11111222' 
TCOON,ioos:station:TCOON:057:1,2015-06-01T12:30:00Z,28.4460,-96.3961,0.0,3.8,323.0,4.3,'11111222,11111222,11111222' 
TCOON,ioos:station:TCOON:057:1,2015-06-01T12:36:00Z,28.4460,-96.3961,0.0,4.0,322.0,4.7,'11111222,11111222,11111222' 
TCOON,ioos:station:TCOON:057:1,2015-06-01T12:42:00Z,28.4460,-96.3961,0.0,3.8,326.0,4.7,'11111222,11111222,11111222' 
TCOON,ioos:station:TCOON:057:1,2015-06-01T12:48:00Z,28.4460,-96.3961,0.0,3.5,331.0,4.5,'11111222,11111222,11111222' 
TCOON,ioos:station:TCOON:057:1,2015-06-01T12:54:00Z,28.4460,-96.3961,0.0,3.5,334.0,4.3,'11111222,11111222,11111222' 
TCOON,ioos:station:TCOON:057:1,2015-06-01T13:00:00Z,28.4460,-96.3961,0.0,3.2,328.0,4.0,'11111222,11111222,11111222' 
TCOON,ioos:station:TCOON:057:1,2015-06-01T13:06:00Z,28.4460,-96.3961,0.0,3.3,335.0,3.8,'11111222,11111222,11111222' 
TCOON,ioos:station:TCOON:057:1,2015-06-01T13:12:00Z,28.4460,-96.3961,0.0,3.3,335.0,3.8,'1111122,1111122,1111122' 
TCOON,ioos:station:TCOON:057:1,2015-06-01T13:18:00Z,28.4460,-96.3961,0.0,3.0,332.0,3.8,'11111222,11111222,11111222' 
TCOON,ioos:station:TCOON:057:1,2015-06-01T13:24:00Z,28.4460,-96.3961,0.0,2.9,347.0,3.4,'11111222,11111222,11111222' 
TCOON,ioos:station:TCOON:057:1,2015-06-01T13:30:00Z,28.4460,-96.3961,0.0,2.8,351.0,3.4,'11111222,11111222,11111222' 
TCOON,ioos:station:TCOON:057:1,2015-06-01T13:36:00Z,28.4460,-96.3961,0.0,2.8,349.0,3.7,'11111222,11111222,11111222' 
TCOON,ioos:station:TCOON:057:1,2015-06-01T13:42:00Z,28.4460,-96.3961,0.0,2.9,340.0,3.8,'11111222,11111222,11111222' 
TCOON,ioos:station:TCOON:057:1,2015-06-01T13:48:00Z,28.4460,-96.3961,0.0,2.9,339.0,3.3,'11111222,11111222,11111222' 
TCOON,ioos:station:TCOON:057:1,2015-06-01T13:54:00Z,28.4460,-96.3961,0.0,3.0,340.0,3.5,'11111222,11111222,11111222' 
TCOON,ioos:station:TCOON:057:1,2015-06-01T14:00:00Z,28.4460,-96.3961,0.0,3.1,340.0,3.5,'11111222,11111222,11111222' 
TCOON,ioos:station:TCOON:057:1,2015-06-01T14:06:00Z,28.4460,-96.3961,0.0,3.3,334.0,3.7,'11111222,11111222,11111222' 
TCOON,ioos:station:TCOON:057:1,2015-06-01T14:12:00Z,28.4460,-96.3961,0.0,3.2,337.0,4.2,'11111222,11111222,11111222' 
TCOON,ioos:station:TCOON:057:1,2015-06-01T14:18:00Z,28.4460,-96.3961,0.0,3.8,350.0,4.3,'11111222,11111222,11111222' 
TCOON,ioos:station:TCOON:057:1,2015-06-01T14:24:00Z,28.4460,-96.3961,0.0,3.8,350.0,4.3,'1111122,1111122,1111122' 
TCOON,ioos:station:TCOON:057:1,2015-06-01T14:30:00Z,28.4460,-96.3961,0.0,3.8,350.0,5.2,'11111222,11111222,11111222' 
TCOON,ioos:station:TCOON:057:1,2015-06-01T14:36:00Z,28.4460,-96.3961,0.0,4.3,344.0,5.0,'11111222,11111222,11111222' 
TCOON,ioos:station:TCOON:057:1,2015-06-01T14:42:00Z,28.4460,-96.3961,0.0,4.1,346.0,4.7,'11111222,11111222,11111222' 
TCOON,ioos:station:TCOON:057:1,2015-06-01T14:48:00Z,28.4460,-96.3961,0.0,3.2,358.0,5.1,'11111222,11111222,11111222' 
TCOON,ioos:station:TCOON:057:1,2015-06-01T14:54:00Z,28.4460,-96.3961,0.0,3.5,345.0,4.9,'11111222,11111222,11111222' 
TCOON,ioos:station:TCOON:057:1,2015-06-01T15:00:00Z,28.4460,-96.3961,0.0,3.3,5.0,4.2,'11111222,11111222,11111222' 
TCOON,ioos:station:TCOON:057:1,2015-06-01T15:06:00Z,28.4460,-96.3961,0.0,3.3,3.0,4.4,'11111222,11111222,11111222' 
TCOON,ioos:station:TCOON:057:1,2015-06-01T15:12:00Z,28.4460,-96.3961,0.0,3.4,350.0,4.4,'11111222,11111222,11111222' 
TCOON,ioos:station:TCOON:057:1,2015-06-01T15:18:00Z,28.4460,-96.3961,0.0,3.4,350.0,4.4,'1111122,1111122,1111122' 
TCOON,ioos:station:TCOON:057:1,2015-06-01T15:24:00Z,28.4460,-96.3961,0.0,3.4,20.0,4.0,'11111222,11111222,11111222' 
TCOON,ioos:station:TCOON:057:1,2015-06-01T15:30:00Z,28.4460,-96.3961,0.0,3.9,10.0,5.4,'11111222,11111222,11111222' 
TCOON,ioos:station:TCOON:057:1,2015-06-01T15:36:00Z,28.4460,-96.3961,0.0,4.1,10.0,5.5,'11111222,11111222,11111222' 
TCOON,ioos:station:TCOON:057:1,2015-06-01T15:42:00Z,28.4460,-96.3961,0.0,3.5,20.0,5.0,'11111222,11111222,11111222' 
TCOON,ioos:station:TCOON:057:1,2015-06-01T15:48:00Z,28.4460,-96.3961,0.0,3.3,13.0,5.1,'11111222,11111222,11111222' 
TCOON,ioos:station:TCOON:057:1,2015-06-01T15:54:00Z,28.4460,-96.3961,0.0,3.6,23.0,4.7,'11111222,11111222,11111222' 
TCOON,ioos:station:TCOON:057:1,2015-06-01T16:00:00Z,28.4460,-96.3961,0.0,3.6,40.0,4.5,'11111222,11111222,11111222' 
TCOON,ioos:station:TCOON:057:1,2015-06-01T16:06:00Z,28.4460,-96.3961,0.0,3.1,33.0,4.4,'11111222,11111222,11111222' 
TCOON,ioos:station:TCOON:057:1,2015-06-01T16:12:00Z,28.4460,-96.3961,0.0,3.3,25.0,4.1,'11111222,11111222,11111222' 
TCOON,ioos:station:TCOON:057:1,2015-06-01T16:18:00Z,28.4460,-96.3961,0.0,3.3,25.0,4.1,'1111122,1111122,1111122' 
TCOON,ioos:station:TCOON:057:1,2015-06-01T16:24:00Z,28.4460,-96.3961,0.0,2.6,59.0,4.2,'11111222,11111222,11111222' 
TCOON,ioos:station:TCOON:057:1,2015-06-01T16:30:00Z,28.4460,-96.3961,0.0,2.8,53.0,3.2,'11111222,11111222,11111222' 
TCOON,ioos:station:TCOON:057:1,2015-06-01T16:36:00Z,28.4460,-96.3961,0.0,2.7,70.0,3.2,'11111222,11111222,11111222' 
TCOON,ioos:station:TCOON:057:1,2015-06-01T16:42:00Z,28.4460,-96.3961,0.0,2.9,48.0,3.5,'11111222,11111222,11111222' 
TCOON,ioos:station:TCOON:057:1,2015-06-01T16:48:00Z,28.4460,-96.3961,0.0,2.7,45.0,3.2,'11111222,11111222,11111222' 
TCOON,ioos:station:TCOON:057:1,2015-06-01T16:54:00Z,28.4460,-96.3961,0.0,2.5,55.0,3.3,'11111222,11111222,11111222' 
TCOON,ioos:station:TCOON:057:1,2015-06-01T17:00:00Z,28.4460,-96.3961,0.0,2.6,61.0,3.5,'11111222,11111222,11111222' 
TCOON,ioos:station:TCOON:057:1,2015-06-01T17:06:00Z,28.4460,-96.3961,0.0,2.9,49.0,3.7,'11111222,11111222,11111222' 
TCOON,ioos:station:TCOON:057:1,2015-06-01T17:12:00Z,28.4460,-96.3961,0.0,2.4,33.0,3.2,'11111222,11111222,11111222' 
TCOON,ioos:station:TCOON:057:1,2015-06-01T17:18:00Z,28.4460,-96.3961,0.0,2.4,33.0,3.2,'1111122,1111122,1111122' 
TCOON,ioos:station:TCOON:057:1,2015-06-01T17:24:00Z,28.4460,-96.3961,0.0,2.5,40.0,3.7,'11111222,11111222,11111222' 
TCOON,ioos:station:TCOON:057:1,2015-06-01T17:30:00Z,28.4460,-96.3961,0.0,2.6,45.0,3.5,'11111222,11111222,11111222' 
TCOON,ioos:station:TCOON:057:1,2015-06-01T17:36:00Z,28.4460,-96.3961,0.0,3.1,67.0,4.2,'11111222,11111222,11111222' 
TCOON,ioos:station:TCOON:057:1,2015-06-01T17:42:00Z,28.4460,-96.3961,0.0,3.2,80.0,3.9,'11111222,11111222,11111222' 
TCOON,ioos:station:TCOON:057:1,2015-06-01T17:48:00Z,28.4460,-96.3961,0.0,3.4,76.0,4.1,'11111222,11111222,11111222' 
TCOON,ioos:station:TCOON:057:1,2015-06-01T17:54:00Z,28.4460,-96.3961,0.0,3.0,77.0,3.8,'11111222,11111222,11111222' 
TCOON,ioos:station:TCOON:057:1,2015-06-01T18:00:00Z,28.4460,-96.3961,0.0,2.9,101.0,3.9,'11111222,11111222,11111222' 
TCOON,ioos:station:TCOON:057:1,2015-06-01T18:06:00Z,28.4460,-96.3961,0.0,2.9,70.0,3.7,'11111222,11111222,11111222' 
TCOON,ioos:station:TCOON:057:1,2015-06-01T18:12:00Z,28.4460,-96.3961,0.0,2.9,70.0,3.7,'1111122,1111122,1111122' 
TCOON,ioos:station:TCOON:057:1,2015-06-01T18:18:00Z,28.4460,-96.3961,0.0,3.3,101.0,4.4,'11111222,11111222,11111222' 
TCOON,ioos:station:TCOON:057:1,2015-06-01T18:24:00Z,28.4460,-96.3961,0.0,2.8,90.0,4.3,'11111222,11111222,11111222' 
TCOON,ioos:station:TCOON:057:1,2015-06-01T18:30:00Z,28.4460,-96.3961,0.0,2.7,103.0,4.3,'11111222,11111222,11111222' 
TCOON,ioos:station:TCOON:057:1,2015-06-01T18:36:00Z,28.4460,-96.3961,0.0,3.5,92.0,4.8,'11111222,11111222,11111222' 
TCOON,ioos:station:TCOON:057:1,2015-06-01T18:42:00Z,28.4460,-96.3961,0.0,3.2,97.0,4.6,'11111222,11111222,11111222' 
TCOON,ioos:station:TCOON:057:1,2015-06-01T18:48:00Z,28.4460,-96.3961,0.0,3.3,106.0,4.6,'11111222,11111222,11111222' 
TCOON,ioos:station:TCOON:057:1,2015-06-01T18:54:00Z,28.4460,-96.3961,0.0,3.9,104.0,4.5,'11111222,11111222,11111222' 
TCOON,ioos:station:TCOON:057:1,2015-06-01T19:00:00Z,28.4460,-96.3961,0.0,3.2,113.0,4.7,'11111222,11111222,11111222' 
TCOON,ioos:station:TCOON:057:1,2015-06-01T19:06:00Z,28.4460,-96.3961,0.0,3.6,104.0,4.9,'11111222,11111222,11111222' 
TCOON,ioos:station:TCOON:057:1,2015-06-01T19:12:00Z,28.4460,-96.3961,0.0,3.6,104.0,4.9,'1111122,1111122,1111122' 
TCOON,ioos:station:TCOON:057:1,2015-06-01T19:18:00Z,28.4460,-96.3961,0.0,2.6,114.0,3.8,'11111222,11111222,11111222' 
TCOON,ioos:station:TCOON:057:1,2015-06-01T19:24:00Z,28.4460,-96.3961,0.0,3.2,119.0,4.3,'11111222,11111222,11111222' 
TCOON,ioos:station:TCOON:057:1,2015-06-01T19:30:00Z,28.4460,-96.3961,0.0,3.5,123.0,4.2,'11111222,11111222,11111222' 
TCOON,ioos:station:TCOON:057:1,2015-06-01T19:36:00Z,28.4460,-96.3961,0.0,3.2,110.0,4.4,'11111222,11111222,11111222' 
TCOON,ioos:station:TCOON:057:1,2015-06-01T19:42:00Z,28.4460,-96.3961,0.0,3.3,123.0,3.9,'11111222,11111222,11111222' 
TCOON,ioos:station:TCOON:057:1,2015-06-01T19:48:00Z,28.4460,-96.3961,0.0,3.0,109.0,3.7,'11111222,11111222,11111222' 
TCOON,ioos:station:TCOON:057:1,2015-06-01T19:54:00Z,28.4460,-96.3961,0.0,3.7,123.0,4.9,'11111222,11111222,11111222' 
TCOON,ioos:station:TCOON:057:1,2015-06-01T20:00:00Z,28.4460,-96.3961,0.0,2.9,123.0,4.6,'11111222,11111222,11111222' 
TCOON,ioos:station:TCOON:057:1,2015-06-01T20:06:00Z,28.4460,-96.3961,0.0,3.2,120.0,4.1,'11111222,11111222,11111222' 
TCOON,ioos:station:TCOON:057:1,2015-06-01T20:12:00Z,28.4460,-96.3961,0.0,3.2,120.0,4.1,'1111122,1111122,1111122' 
TCOON,ioos:station:TCOON:057:1,2015-06-01T20:18:00Z,28.4460,-96.3961,0.0,2.7,109.0,4.2,'11111222,11111222,11111222' 
TCOON,ioos:station:TCOON:057:1,2015-06-01T20:24:00Z,28.4460,-96.3961,0.0,3.3,113.0,4.1,'11111222,11111222,11111222' 
TCOON,ioos:station:TCOON:057:1,2015-06-01T20:30:00Z,28.4460,-96.3961,0.0,3.6,123.0,4.3,'11111222,11111222,11111222' 
TCOON,ioos:station:TCOON:057:1,2015-06-01T20:36:00Z,28.4460,-96.3961,0.0,3.2,115.0,3.9,'11111222,11111222,11111222' 
TCOON,ioos:station:TCOON:057:1,2015-06-01T20:42:00Z,28.4460,-96.3961,0.0,3.0,124.0,4.1,'11111222,11111222,11111222' 
TCOON,ioos:station:TCOON:057:1,2015-06-01T20:48:00Z,28.4460,-96.3961,0.0,3.0,124.0,4.0,'11111222,11111222,11111222' 
TCOON,ioos:station:TCOON:057:1,2015-06-01T20:54:00Z,28.4460,-96.3961,0.0,3.5,103.0,4.4,'11111222,11111222,11111222' 
TCOON,ioos:station:TCOON:057:1,2015-06-01T21:00:00Z,28.4460,-96.3961,0.0,3.7,114.0,4.4,'11111222,11111222,11111222' 
TCOON,ioos:station:TCOON:057:1,2015-06-01T21:06:00Z,28.4460,-96.3961,0.0,3.8,114.0,5.2,'11111222,11111222,11111222' 
TCOON,ioos:station:TCOON:057:1,2015-06-01T21:12:00Z,28.4460,-96.3961,0.0,3.3,119.0,4.2,'11111222,11111222,11111222' 
TCOON,ioos:station:TCOON:057:1,2015-06-01T21:18:00Z,28.4460,-96.3961,0.0,3.3,119.0,4.2,'1111122,1111122,1111122' 
TCOON,ioos:station:TCOON:057:1,2015-06-01T21:24:00Z,28.4460,-96.3961,0.0,3.9,124.0,5.0,'11111222,11111222,11111222' 
TCOON,ioos:station:TCOON:057:1,2015-06-01T21:30:00Z,28.4460,-96.3961,0.0,3.0,122.0,4.8,'11111222,11111222,11111222' 
TCOON,ioos:station:TCOON:057:1,2015-06-01T21:36:00Z,28.4460,-96.3961,0.0,4.3,131.0,5.2,'11111222,11111222,11111222' 
TCOON,ioos:station:TCOON:057:1,2015-06-01T21:42:00Z,28.4460,-96.3961,0.0,4.4,130.0,5.4,'11111222,11111222,11111222' 
TCOON,ioos:station:TCOON:057:1,2015-06-01T21:48:00Z,28.4460,-96.3961,0.0,4.4,138.0,5.4,'11111222,11111222,11111222' 
TCOON,ioos:station:TCOON:057:1,2015-06-01T21:54:00Z,28.4460,-96.3961,0.0,4.5,134.0,5.3,'11111222,11111222,11111222' 
TCOON,ioos:station:TCOON:057:1,2015-06-01T22:00:00Z,28.4460,-96.3961,0.0,4.4,129.0,4.9,'11111222,11111222,11111222' 